Regional Weather Roundup
Issued by NWS Sterling, VA

Home | Current Version | Previous Version | Graphics & Text | Print | Product List | Glossary On
Versions: 1 2 3 4 5 6 7 8 9 10 11 12 13 14 15 16 17 18 19 20 21 22 23 24 25 26 27
000
ASUS41 KLWX 231811
RWRLWX

REGIONAL WEATHER ROUNDUP
NATIONAL WEATHER SERVICE BALTIMORE MD/WASHINGTON DC
200 PM EDT FRI JUN 23 2017

Note: "FAIR" indicates few or no clouds below 12,000 feet
with no significant weather and/or obstructions to visibility.
 TC=TEMPERATURE CELSIUS

 * =Non NWS site. Station does not report precipitation (e.g. rain,
    snow, etc.), thunder, or fog.

DCZ001-MDZ009-015-VAZ040>042-051-053>054-231900-
WASHINGTON METRO

CITY           SKY/WX    TMP DP  RH WIND       PRES   REMARKS
WASHINGTON NAT CLOUDY    86  74  67 SW17G24   29.77F HX  94
DULLES         CLOUDY    85  73  67 S20G29    29.77F HX  91
ANDREWS AFB    CLOUDY    85  73  66 SW20G26   29.78F HX  91
FT BELVOIR     CLOUDY    85  72  63 S7G22     29.78F HX  91
QUANTICO       CLOUDY    83  75  77 SW10G20   29.80F HX  90
COLLEGE PARK*  CLOUDY    85  72  64 SW8       29.76F HX  90
LEESBURG*      CLOUDY    88  77  70 SW13G25   29.77F HX 100
MANASSAS*      CLOUDY    84  74  71 SW15G22   29.79F HX  91
GAITHERSBURG*  CLOUDY    86  74  67 S10G20    29.78F HX  94

$$

MDZ006>007-011-014-231900-
BALTIMORE METRO

CITY           SKY/WX    TMP DP  RH WIND       PRES   REMARKS
BWI AIRPORT    CLOUDY    86  74  67 SW10G20   29.75F HX  94
MD SCIENCE CTR   N/A     89  74  60 MISG      29.74F HX  98
MARTIN STATE   PTSUNNY   86  79  79 S12       29.76F HX  99
ANNAPOLIS      CLOUDY    87  75  67 SW9G20    29.75F HX  96
FORT MEADE*    CLOUDY    82  73  74 SW8       29.78F

$$

MDZ012-015-019>023-231900-
MARYLAND EASTERN SHORE

CITY           SKY/WX    TMP DP  RH WIND       PRES   REMARKS
OCEAN CITY     SUNNY     81  74  79 S12G24    29.83F
SALISBURY      MOSUNNY   87  75  67 SW17G25   29.81F HX  96
BAY BRIDGE AP* PTSUNNY   86  75  70 S10G17    29.77F HX  95
CAMBRIDGE*     SUNNY     86  75  70 VRB7G18   29.80F HX  95
EASTON*        MOSUNNY   88  73  62 SW16G23   29.83F HX  96

$$

MDZ017>025-231900-
SOUTHERN MARYLAND

CITY           SKY/WX    TMP DP  RH WIND       PRES   REMARKS
PATUXENT RIVER LGT RAIN  84  74  71 SW10      29.81S HX  91
ST INIGOES     CLOUDY    86  75  69 SW15      29.81F HX  95
LEONARDTOWN*   CLOUDY    82  72  69 SW14      29.83S

$$

MDZ003>005-231900-
NORTH CENTRAL MARYLAND

CITY           SKY/WX    TMP DP  RH WIND       PRES   REMARKS
FREDERICK*     PTSUNNY   86  70  58 S12G21    29.76F HX  90
HAGERSTOWN APT PTSUNNY   87  71  58 SW13G21   29.73F HX  93
WESTMINSTER*   CLOUDY    88  73  62 SW12G20   29.76F HX  96

$$

MDZ501>502-231900-
WESTERN MARYLAND

CITY           SKY/WX    TMP DP  RH WIND       PRES   REMARKS
OAKLAND*       NOT AVBL
CUMBERLAND*    PTSUNNY   84  72  65 SW12G20   29.78R

$$

VAZ025>031-231900-
SHENANDOAH VALLEY

CITY           SKY/WX    TMP DP  RH WIND       PRES   REMARKS
WINCHESTER*    PTSUNNY   84  72  65 S15       29.76F
FRONT ROYAL*   MOSUNNY   84  70  61 S14G25    29.77S
LURAY*         MOSUNNY   82  72  69 SW17G26   29.81S
NEW MARKET*    MOSUNNY   83  68  60 SW15G28   29.79F
STAUNTON*      MOSUNNY   78  69  73 SW9G21    29.88F
WAYNESBORO*    CLOUDY    78  69  74 SW8G22    29.89S

$$

WVZ021-048>050-054>055-231900-
EASTERN WEST VIRGINIA PANHANDLE

CITY           SKY/WX    TMP DP  RH WIND       PRES   REMARKS
MARTINSBURG    CLOUDY    84  71  65 S13       29.73F
PETERSBURG*    CLOUDY    86  69  56 SW12G18   29.78F HX  90

$$

VAZ036>039-050-231900-
CENTRAL FOOTHILLS

CITY           SKY/WX    TMP DP  RH WIND       PRES   REMARKS
CHARLOTTESVILL LGT RAIN  83  74  74 SW5       29.83F
CULPEPER*      CLOUDY    82  74  78 SW13G21   29.81S
ORANGE*        CLOUDY    81  73  78 SW13G18   29.82F
GORDONSVILLE*  CLOUDY    82  74  76 SW14      29.82F
WARRENTON*     CLOUDY    83  71  66 SW12G20   29.79F

$$

VAZ055>057-231900-
NORTH AND CENTRAL PIEDMONT

CITY           SKY/WX    TMP DP  RH WIND       PRES   REMARKS
FREDERICKSBRG* PTSUNNY   84  75  75 SW13      29.81F HX  92
STAFFORD*      PTSUNNY   80  75  84 SW10      29.85F

$$

NCZ024-NYZ072-PAZ021-071-VAZ022-071-231900-
OTHER REGIONAL OBSERVATIONS

CITY           SKY/WX    TMP DP  RH WIND       PRES   REMARKS
NEW YORK CITY  LGT RAIN  76  72  87 VRB3G21   29.74F
PHILADELPHIA   PTSUNNY   84  72  67 SW15G24   29.74F
PITTSBURGH     LGT RAIN  74  70  87 SW13      29.71S
ROANOKE        CLOUDY    83  67  58 SW13G23   29.91F
RICHMOND       PTSUNNY   89  74  60 SW16G31   29.85F HX  98
RALEIGH        PTSUNNY   88  73  61 SW17G28   29.95F HX  95

$$

ANZ530>537-231900-
MARINE OBSERVATIONS

STATION/POSITION TIME  TEMP    WIND        PRES
                       AIR SEA DIR/SP/G
                 (UTC) (F)     (DEG/KT/KT) (MB)
THOMAS PT LIGHT  1800   83 78  220/ 15/ 19   N/A
BALT KEY BRIDGE  1748   85     230/ 11/ 15 1006.9F
COVE POINT       1748   84     230/ 14/ 22 1009.7F
LEWISETTA        1748   83 80  250/ 18/ 26 1009.7F
SOLOMONS ISLAND  1742   82 77  240/ 13/ 21   N/A
PINEY POINT      1748          260/ 11/ 15   N/A

$$





USA.gov is the U.S. government's official web portal to all federal, state and local government web resources and services.